SL-8 DEB, 1590

Orbit data source: Space-Track

SL-8 DEB, 1590 is space debris in LEO originally from a launch on Sat, 18 Sep 1965 UTC launched from the Tyuratam Missile And Space Complex (TTMTR). Debris objects in space refer to the collection of defunct objects orbiting the Earth. Examples of debris include non-operational satellites, rocket bodies, and fragments generated from explosions, collisions, or faulty payload assembly.

Loading next visibility...
Identifier
1590, 1965-073G
Orbit
LEO
Country
Flag of CISCIS
Related business
Manufacturer
Unknown
Mission
Spacecraft
Bus & Motor
Unknown
Mass
Unknown
Launch date (UTC)
1965-09-18 (60 years ago)
Launch vehicle
Unknown
Launch site
Tyuratam Missile And Space Complex (TTMTR)
Object type
Payload
Rocket body
Debris
Shape & HBR
Unknown
Radar Cross Section
Small (<0.1 m²)

Expand to show TLE details & history
Last TLE update: 2 days ago

TLE from 2 days ago
0 SL-8 DEB
1 01590U 65073G   25241.20179491  .00000139  00000-0  14576-2 0  9991
2 01590  56.0825 163.0334 0180892   5.6935 145.6902 12.49679191721836
Epoch: 2025-08-29T04:50Z
TLE epoch observation values (Epoch: 2025-08-29T04:50:35.08Z)
Latitude
22.54966°
Longitude
-83.39904°
Altitude
1,584.759 km
Speed
7.026 km/s
True Right ascension
21h 47m 36s
True Declination
22° 26' 27"
Sunlit
Object was in full shadow at epoch
Visualization orbit readout
Latitude
Unknown
Longitude
Unknown
Altitude
Unknown
Speed
Unknown
Apparent Right ascension
Unknown
Apparent Declination
Unknown
Sunlit
N/A
Visualization observer readout
Local Sidereal Time
20:21:28
Azimuth
Unknown
Elevation
Unknown
Doppler factor
Unknown
Orbital elements
Apogee altitude
1,607.545 km
Perigee altitude
1,323.769 km
Semi-major axis
7,843.794 km
Eccentricity
0.01809
Inclination
56.0825°
RAAN
163.0334°
Arg. of periapsis
5.6935°
True anomaly
146.83709°
Mean anomaly
145.6902°
Eccentric anomaly
146.26578°
Mean motion
3.12431 °/min
Orbital period
115.23 mins
BSTAR
0.0014576
Loading maneuver chart data...
Computing Atmospheric mass density...
Loading historical data...
Loading historical data...
Loading historical data...
Loading historical data...
Loading historical data...
Loading historical data...
Loading historical data...

Documentation

Showing up to 5 results
|